Weather Roundup
Issued by NWS Chicago, IL

Home | Current Version | Previous Version | Graphics & Text | Print | Product List | Glossary On
Versions: 1 2 3 4 5 6 7 8 9 10 11 12 13 14 15 16 17 18 19 20 21 22 23 24 25 26 27 28 29 30 31 32 33 34 35 36 37 38 39 40 41 42 43 44 45 46 47 48 49 50
000
NZUS59 KLOT 240702
HRRLOT

CHICAGO AREA WEATHER ROUNDUP
NATIONAL WEATHER SERVICE CHICAGO/ROMEOVILLE IL
200 AM CDT FRI MAR 24 2017

NOTE: "FAIR" INDICATES FEW OR NO CLOUDS BELOW 12,000 FEET WITH NO
SIGNIFICANT WEATHER AND/OR OBSTRUCTIONS TO VISIBILITY.

* THESE STATIONS ARE NOT UNDER NWS QUALITY CONTROL. THEY ALSO MAY NOT
  REPORT WEATHER SUCH AS PRECIPITATION OR FOG.

ILZ005-006-012>014-019>023-240800-
NORTHEAST ILLINOIS

CITY           SKY/WX    TMP DP  RH WIND       PRES   REMARKS
OHARE          PTCLDY    44  34  67 S12       29.96F
MIDWAY         PTCLDY    48  34  58 S12G17    29.97F
AURORA         CLEAR     44  35  70 S12       29.96S
LANSING*       CLEAR     43  35  72 S6        29.99F
WAUKEGAN       CLEAR     47  36  65 S20       29.93F
DUPAGE AIRPORT CLEAR     46  38  73 S12       29.95F
WHEELING       CLEAR     46  35  65 S10       29.97F
MORRIS*        PTCLDY    46  37  71 S8        29.96F
NORTHERLY ISL    N/A     47  32  56 S6          N/A
$$

WIZ051-052-058>065-066-070>072-240800-
SOUTHEAST WISCONSIN

CITY           SKY/WX    TMP DP  RH WIND       PRES   REMARKS
MILWAUKEE      MOCLDY    45  34  65 SW13      29.92R
KENOSHA*       CLOUDY    47  35  63 S16       29.91F
RACINE*        CLOUDY    44  34  67 S10       29.92F
WEST BEND      CLOUDY    43  36  75 S3        29.91F
$$

INZ001>003-010>013-019-020-240800-
NORTHWEST INDIANA

CITY           SKY/WX    TMP DP  RH WIND       PRES   REMARKS
GARY*          PTCLDY    47  31  52 S3        30.00F
MICHIGAN CITY* NOT AVBL
RENSSELAER*    NOT AVBL
VALPARAISO     PTCLDY    48  35  60 S9        30.01F
$$

LMZ740>746-240800-
SOUTHERN LAKE MICHIGAN

STATION/POSITION TIME  SKY/WX   TEMP WIND        PRES    VSBY
                                AIR  DIR/SP/G
                 (UTC)          (F)  (DEG/KT/KT) (MB)    (MI)
HARRISON CRIB    0640            48  170/ 16/ 17   N/A
BURNHAM HARBOR   0700            46  170/  5/  7   N/A
CALUMET HARBOR   0630            48  160/  5/  8 1014.8F
BURNS HARBOR     0640            49  180/  9/ 15 1016.3F
MICHIGAN CITY    0640            49  140/  8/ 10   N/A
$$

ABBREVIATIONS USED IN REMARKS
   TC - TEMPERATURE IN CELSIUS
  WCI - WIND CHILL INDEX
   HX - HEAT INDEX
  VSB - VISIBILITY
$$




USA.gov is the U.S. government's official web portal to all federal, state and local government web resources and services.